TimeMST,TemperatureF,Dew PointF,Humidity,Sea Level PressureIn,VisibilityMPH,Wind Direction,Wind SpeedMPH,Gust SpeedMPH,PrecipitationIn,Events,Conditions,WindDirDegrees,DateUTC
12:53 AM,55.0,48.9,80,29.96,10.0,Calm,Calm,-,N/A,,Clear,0,2013-02-04 07:53:00
1:53 AM,53.1,48.0,83,29.96,10.0,Calm,Calm,-,N/A,,Mostly Cloudy,0,2013-02-04 08:53:00
4:53 AM,55.0,46.0,72,29.95,10.0,NNE,3.5,-,N/A,,Overcast,30,2013-02-04 11:53:00
5:53 AM,55.9,43.0,62,29.96,10.0,North,4.6,-,N/A,,Overcast,10,2013-02-04 12:53:00
6:53 AM,57.0,43.0,59,29.96,10.0,Calm,Calm,-,N/A,,Overcast,0,2013-02-04 13:53:00
7:53 AM,55.9,43.0,62,29.98,10.0,NE,3.5,-,N/A,,Overcast,50,2013-02-04 14:53:00
8:53 AM,57.9,42.1,56,29.98,10.0,NNE,5.8,-,N/A,,Mostly Cloudy,30,2013-02-04 15:53:00
9:53 AM,63.0,43.0,48,29.99,10.0,WNW,3.5,-,N/A,,Clear,290,2013-02-04 16:53:00
10:53 AM,64.9,43.0,45,30.01,10.0,Calm,Calm,-,N/A,,Clear,0,2013-02-04 17:53:00
11:53 AM,66.0,43.0,43,29.99,10.0,South,5.8,-,N/A,,Clear,180,2013-02-04 18:53:00
12:53 PM,68.0,41.0,37,29.96,10.0,SE,5.8,-,N/A,,Clear,140,2013-02-04 19:53:00
1:53 PM,70.0,39.9,33,29.93,10.0,SE,3.5,-,N/A,,Clear,130,2013-02-04 20:53:00
2:53 PM,72.0,37.0,28,29.91,10.0,Variable,3.5,-,N/A,,Clear,0,2013-02-04 21:53:00
3:53 PM,72.0,37.0,28,29.89,10.0,Calm,Calm,-,N/A,,Clear,0,2013-02-04 22:53:00
5:53 PM,70.0,37.9,31,29.88,10.0,SSW,4.6,-,N/A,,Clear,210,2013-02-05 00:53:00
6:53 PM,66.0,39.9,38,29.90,10.0,WSW,4.6,-,N/A,,Clear,250,2013-02-05 01:53:00
7:53 PM,62.1,43.0,50,29.92,10.0,Calm,Calm,-,N/A,,Clear,0,2013-02-05 02:53:00
8:53 PM,60.1,43.0,53,29.94,10.0,North,3.5,-,N/A,,Clear,360,2013-02-05 03:53:00
9:53 PM,59.0,43.0,55,29.94,10.0,Calm,Calm,-,N/A,,Clear,0,2013-02-05 04:53:00
10:53 PM,57.9,43.0,58,29.95,10.0,NNE,8.1,-,N/A,,Clear,30,2013-02-05 05:53:00
11:53 PM,55.9,42.1,60,29.95,10.0,NE,9.2,-,N/A,,Clear,40,2013-02-05 06:53:00